Showing default

RUZAEVKA-390, 61766

Orbit data source: Space-Track

RUZAEVKA-390, 61766 is a payload satellite owned by Saransk PT (CIS) in SSO that was launched on Mon, 04 Nov 2024 UTC via a SOYUZ-2-1B launch vehicle from the Vostochny Cosmodrome (VOSTO). Payload-class satellites include a variety of spacecraft equipped with specific instruments for various scientific and technological missions. These include communications satellites like Starlink; space stations such as the ISS; scientific satellites like the Hubble; Earth observation satellites from companies like Planet Labs, Umbra, and HawkEye 360; GPS; miniature CubeSats for education and research; and military/defense satellites.

Not visible in the next 10 days
Identifier
61766, 2024-199AH
Orbit
SSO
Country
Flag of CISCIS
Related business
Manufacturer
Yugo-Zapad. GU
Mission
Operational Amateur Technology
Bus & Motor
CUBESAT 3U, Unknown motor
Mass
5 kg wet, 5 kg dry
Launch date (UTC)
2024-11-04 (1 year ago)
Launch vehicle
SOYUZ-2-1B
Launch site
Vostochny Cosmodrome (VOSTO)
Object type
Payload
Rocket body
Debris
Shape & HBR
Box, 0.1 m
Radar Cross Section
0.035 m², Small (<0.1 m²)

Expand to show TLE details & history
Last TLE update: 16 hours ago

TLE from 16 hours ago
0 RUZAEVKA-390
1 61766U 24199AH  26061.62672404  .00844467  34052-3  16494-2 0  9993
2 61766  97.2881 303.4007 0001705 153.2138 206.9229 16.00278810118391
Epoch: 2026-03-02T15:02Z
TLE epoch observation values (Epoch: 2026-03-02T15:02:28.957Z)
Latitude
0.00001°
Longitude
-82.63738°
Altitude
277.859 km
Speed
7.74 km/s
True Right ascension
20h 13m 36s
True Declination
0° 00' 00"
Sunlit
Object was in daylight at epoch
Visualization orbit readout
Latitude
Unknown
Longitude
Unknown
Altitude
Unknown
Speed
Unknown
Apparent Right ascension
Unknown
Apparent Declination
Unknown
Sunlit
N/A
Visualization observer readout
Local Sidereal Time
10:46:22
Azimuth
Unknown
Elevation
Unknown
Doppler factor
Unknown
Orbital elements
Apogee altitude
271.634 km
Perigee altitude
269.367 km
Semi-major axis
6,648.638 km
Eccentricity
0.00017
Inclination
97.2881°
RAAN
303.4007°
Arg. of periapsis
153.2138°
True anomaly
206.91406°
Mean anomaly
206.9229°
Eccentric anomaly
206.91848°
Mean motion
4.00354 °/min
Orbital period
89.92 mins
BSTAR
0.0016494
Loading maneuver chart data...
Computing Atmospheric mass density...
Loading historical data...
Loading historical data...
Loading historical data...
Loading historical data...
Loading historical data...
Loading historical data...
Loading historical data...

Documentation

Showing up to 5 results
|